Погода в Утене

Поиск расширенной информации на нашем сайте:

Полезная информация:

Новости сайта



02.01.2020
Опубликован Долгосрочный прогноз погоды по городам России и ближнего зарубежья на январь 2020 года.
Карты: Прогноз на январь и февраль 2020 года, Сравнение прогнозируемой аномалии приземной температуры воздуха на январь 2020 года по разным моделям.




Погода в Утене - сегодня

Время (UTC), дата Ветер
(°,м/с) 
Видим.   Явления Облачность Т
(°С)
Тd
(°С)
f(%) Тe
(°С)
Pmin
(гПа)
dP
(гПа)
Po
(мм)
O2
(г/м3)
Тmin Tmax R s Состояние
почвы
15 16.04.21 040 (СВ) 4-8{09}  20000 м    3/3 1000 м верхняя 
[Cu med, cong|Ci sp]
+15.1 +3 44 +15  1016.3  -0.6  753  287           
18 16.04.21 060 (СВ) 3-5{11}  20000 м    9/5 600 м средняя, верхняя 
[Sc|Ac und|Ci sp]
+13 +3 51 +13  1017.9  1.4  754  289    +15.4       
21 16.04.21 050 (СВ) 2-4{06}  20000 м    4/4 1500 м 
[Sc]
+10.4 +2.8 59 +11  1019.1  1.1  755  293           
00 17.04.21 030 (СВ) 2-3{05}  20000 м    9/5 1000 м средняя 
[Sc|Ac und]
+8.9 +2.8 66 +9  1019.3  0.2  755  294           
03 17.04.21 050 (СВ) 2-3{04}  20000 м  слаб. дождь  10/10 1500 м 
[Ns]
+8.7 +3.9 72 +9  1019.6  0.2  755  294           
06 17.04.21 080 (В) 4-6{07}  20000 м  {дождь}  5/3 1000 м верхняя 
[Cu med, cong|Ci sp]
+11.2 +3.3 58 +10  1020.3  0.8  756  292  +7.9    0.0    влажная 
09 17.04.21 060 (СВ) 4-6{07}  17000 м    3/3 600 м 
[Cu med, cong]
+15.4 +4.1 47 +15  1020  -0.1  755  288           
12 17.04.21 040 (СВ) 4-7{10}  20000 м    8/5 1000 м верхняя 
[Cu med, cong|Ci sp]
+17.4 +4.5 42 +18  1019.6  -0.3  755  285           
15 17.04.21 040 (СВ) 4-8{09}  20000 м    8/5 600 м средняя 
[Cu med, cong|Ac und]
+17.3 +3.4 39 +18  1019.4  -0.2  755  286           
18 17.04.21 050 (СВ) 2-3{08}  20000 м    3/3 600 м 
[Cu med, cong]
+14.7 +1.7 41 +15  1020.5  0.9  756  289    +18.8       
21 17.04.21 070 (В) 2-4{05}  20000 м    ясно <0100 м 
+11.8 +1.7 50 +12  1021.2  0.7  756  292           
00 18.04.21 290 (З) 2-2{04}  20000 м    ясно 
+5.4 +2 79 +5  1021.4  -0.1  756  299           
03 18.04.21 290 (З) 1-1{02}  19000 м    5/0 средняя 
[Ac und]
+1.5 +0.7 94 +2  1021.5  -0.1  756  303           
06 18.04.21 050 (СВ) 2-3{03}  20000 м    9/0 верхняя 
[Cs]
+10.3 +0.6 51 +10  1021.5  0.3  756  294  +1.3        влажная 
09 18.04.21 060 (СВ) 4-7{08}  20000 м    5/3 1000 м верхняя 
[Cu med, cong|Ci fib]
+15.9 -0.7 32 +16  1020.6  -0.5  756  288           
12 18.04.21 050 (СВ) 4-8{10}  20000 м    4/3 600 м верхняя 
[Cu med, cong|Ci fib]
+18.7 -1.8 25 +19  1020  -0.5  756  285           
15 18.04.21 070 (В) 4-8{09}  20000 м    ясно <0100 м 
+18.8 -4.8 20 +19  1019.6  -0.5  755  285           
18 18.04.21 030 (СВ) 1-2{08}  20000 м    ясно 
+14 -4.4 28 +15  1020.8  756  290    +19.7       
21 18.04.21 030 (СВ) 2-3{04}  20000 м    ясно <0100 м 
+10.5 -4.5 34 +11  1021.6  0.7  757  294           
00 19.04.21 290 (З) 1-1{03}  20000 м    ясно 
+1.7 -2.5 74 +2  1021.8  -0.3  756  303           
03 19.04.21 300 (СЗ) 1-1{02}  20000 м    ясно 
-0.7 -2.1 90 1022  0.1  756  306           
06 19.04.21 130 (ЮВ) 1-3{03}  20000 м    ясно 
+10.8 -1.3 43 +12  1021.4  756  293  -1        сухая 
09 19.04.21 070 (В) 4-7{09}  20000 м    3/3 2000 м 
[Cu med, cong]
+15.7 -2.1 29 +16  1020.9  -0.3  756  288           
12 19.04.21 060 (СВ) 3-6{11}  18000 м    5/5 1000 м 
[Cu med, cong]
+17.2 -1 29 +18  1020.5  -0.3  756  287           
15 19.04.21 090 (В) 3-6{09}  20000 м    4/4 600 м 
[Cu med, cong]
+16.2 -1.7 29 +17  1020  -0.6  755  288           
Время (UTC), дата Ветер
(°,м/с) 
Видим.   Явления Облачность Т
(°С)
Тd
(°С)
f(%) Тe
(°С)
Pmin
(гПа)
dP
(гПа)
Po
(мм)
O2
(г/м3)
Тmin Tmax R s Состояние
почвы

Для получения пояснительной информации подведите курсор к названию столбца.

ПОГОДА в Утене - архив

Всё, что Вы хотите узнать о погоде в Утене - удобно и подробно!

Выберите нужную дату (начиная с 1 января 2019* года) и нажмите кнопку "Найти".
Будут отображены архивные сводки погоды по пункту Утена, начиная с указанной даты.


Отображать данные в формате CSV (для использования в таблицах Excel)


Внимание! Наш архив погоды предназначен исключительно для личного некоммерческого использования в познавательных целях. Если Вам необходимы официальные справки о состоянии погоды (для производственных, юридических, коммерческих и т.п. целей), обращайтесь в органы Росгидромета.

*Примечание: данная дата относится к архиву по метеостанциям СССР (Россия, СНГ, Балтия).
Архив по метеостанциям Зарубежной Европы и Азии (кроме Китая) хранится 10 дней, по другим регионам земного шара (Китай, Африка, Америка, Австралия, Океания) - 1 день.

Утена - район местоположения метеостанции


Название, широта, долгота, высота метеостанции:
Утена 55.5°ш. 25.6°д. 106 м над ур. моря [Литва]

Дополнительная информация

В oтличие oт бoльшинства пoгoдных сайтoв мы публикуем пoдрoбную метеoинфoрмацию в детальнoм прoфессиoнальнoм фoрмате.

Характеристики температуры и влажнoсти вoздуха измеряются на высoте 2 м в тени вдали oт зданий и деревьев.
Скoрoсть ветра измеряется на высoте 10 м (на урoвне рoста челoвека скoрoсть ветра ниже в 1.5-2 раза). Если метеoстанция нахoдится в гoрoде или в лесу, тo скoрoсть ветра занижена на 2-4 м/с пo сравнению с oткрытым местoм. Скoрoсть ветра над акватoриями крупных рек и oзёр, а также на вершинах хoлмoв на 2-5 м/с выше, чем в oбычных услoвиях.
Атмoсфернoе давление в разных тoчках местнoсти мoжет значительнo oтличаться oт давления на метеoстанции, в зависимoсти oт услoвий рельефа (при пoдъёме на 10 м давление пoнижается примернo на 1 мм рт.ст.).